date,time,SUV Intensity [MED/Hr],UV Index,Daily total [MED],Since Last [MED]
15/08/2022,00:11:41,-0.000,0.0,0.0,0.0
15/08/2022,00:12:41,0.000,0.0,0.0,0.0
15/08/2022,00:13:41,0.000,0.0,0.0,0.0
15/08/2022,00:14:40,0.001,0.0,0.0,0.0
15/08/2022,00:15:40,-0.001,0.0,0.0,0.0
15/08/2022,00:16:40,0.000,0.0,0.0,0.0
15/08/2022,00:17:40,0.000,0.0,0.0,0.0
15/08/2022,00:18:41,-0.001,0.0,0.0,0.0
15/08/2022,00:19:41,0.000,0.0,0.0,0.0
15/08/2022,00:20:41,0.000,0.0,0.0,0.0
15/08/2022,00:21:40,0.000,0.0,0.0,0.0
15/08/2022,00:22:41,0.001,0.0,0.0,0.0
15/08/2022,00:23:49,0.000,0.0,0.0,0.0
15/08/2022,00:24:41,0.000,0.0,0.0,0.0
15/08/2022,00:25:41,0.000,0.0,0.0,0.0
15/08/2022,00:26:41,0.001,0.0,0.0,0.0
15/08/2022,00:27:41,0.000,0.0,0.0,0.0
15/08/2022,00:28:40,0.000,0.0,0.0,0.0
15/08/2022,00:29:41,0.001,0.0,0.0,0.0
15/08/2022,00:30:49,0.000,0.0,0.0,0.0
15/08/2022,00:31:40,0.000,0.0,0.0,0.0
15/08/2022,00:32:41,0.000,0.0,0.0,0.0
15/08/2022,00:33:40,-0.001,0.0,0.0,0.0
15/08/2022,00:34:41,0.001,0.0,0.0,0.0
15/08/2022,00:35:41,0.000,0.0,0.0,0.0
15/08/2022,00:36:41,0.002,0.0,0.0,0.0
15/08/2022,00:37:49,0.000,0.0,0.0,0.0
15/08/2022,00:38:41,0.000,0.0,0.0,0.0
15/08/2022,00:39:41,0.001,0.0,0.0,0.0
15/08/2022,00:40:41,0.000,0.0,0.0,0.0
15/08/2022,00:41:41,0.000,0.0,0.0,0.0
15/08/2022,00:42:49,-0.000,0.0,0.0,0.0
15/08/2022,00:43:40,0.000,0.0,0.0,0.0
15/08/2022,00:44:40,0.000,0.0,0.0,0.0
15/08/2022,00:45:41,-0.000,0.0,0.0,0.0
15/08/2022,00:46:41,0.000,0.0,0.0,0.0
15/08/2022,00:47:41,0.001,0.0,0.0,0.0
15/08/2022,00:48:41,0.000,0.0,0.0,0.0
15/08/2022,00:49:41,0.001,0.0,0.0,0.0
15/08/2022,00:50:41,0.001,0.0,0.0,0.0
15/08/2022,00:51:41,0.001,0.0,0.0,0.0
15/08/2022,00:52:41,0.001,0.0,0.0,0.0
15/08/2022,00:53:49,0.001,0.0,0.0,0.0
15/08/2022,00:54:41,-0.000,0.0,0.0,0.0
15/08/2022,00:55:41,0.000,0.0,0.0,0.0
15/08/2022,00:56:49,0.001,0.0,0.0,0.0
15/08/2022,00:57:41,0.001,0.0,0.0,0.0
15/08/2022,00:58:41,0.000,0.0,0.0,0.0
15/08/2022,00:59:41,0.001,0.0,0.0,0.0
15/08/2022,01:00:41,0.001,0.0,0.0,0.0
15/08/2022,01:01:41,0.001,0.0,0.0,0.0
15/08/2022,01:02:41,0.001,0.0,0.0,0.0
15/08/2022,01:03:40,0.001,0.0,0.0,0.0
15/08/2022,01:04:41,0.001,0.0,0.0,0.0
15/08/2022,01:05:41,0.001,0.0,0.0,0.0
15/08/2022,01:06:41,0.000,0.0,0.0,0.0
15/08/2022,01:07:41,0.000,0.0,0.0,0.0
15/08/2022,01:08:58,0.002,0.0,0.0,0.0
15/08/2022,01:10:42,0.001,0.0,0.0,0.0
15/08/2022,01:11:40,0.001,0.0,0.0,0.0
15/08/2022,01:12:41,0.001,0.0,0.0,0.0
15/08/2022,01:13:41,0.001,0.0,0.0,0.0
15/08/2022,01:14:43,0.001,0.0,0.0,0.0
15/08/2022,01:15:40,0.001,0.0,0.0,0.0
15/08/2022,01:16:49,-0.000,0.0,0.0,0.0
15/08/2022,01:17:40,0.001,0.0,0.0,0.0
15/08/2022,01:18:41,0.000,0.0,0.0,0.0
15/08/2022,01:19:49,0.001,0.0,0.0,0.0
15/08/2022,01:20:41,0.001,0.0,0.0,0.0
15/08/2022,01:21:41,0.000,0.0,0.0,0.0
15/08/2022,01:22:41,0.001,0.0,0.0,0.0
15/08/2022,01:23:41,0.001,0.0,0.0,0.0
15/08/2022,01:24:43,0.000,0.0,0.0,0.0
15/08/2022,01:25:41,0.001,0.0,0.0,0.0
15/08/2022,01:26:41,0.001,0.0,0.0,0.0
15/08/2022,01:27:49,0.001,0.0,0.0,0.0
15/08/2022,01:28:41,0.000,0.0,0.0,0.0
15/08/2022,01:29:41,0.001,0.0,0.0,0.0
15/08/2022,01:30:49,0.001,0.0,0.0,0.0
15/08/2022,01:31:41,0.000,0.0,0.0,0.0
15/08/2022,01:32:49,0.001,0.0,0.0,0.0
15/08/2022,01:33:41,0.001,0.0,0.0,0.0
15/08/2022,01:34:41,0.001,0.0,0.0,0.0
15/08/2022,01:35:50,0.001,0.0,0.0,0.0
15/08/2022,01:36:41,0.001,0.0,0.0,0.0
15/08/2022,01:37:41,0.001,0.0,0.0,0.0
15/08/2022,01:38:41,0.001,0.0,0.0,0.0
15/08/2022,01:39:41,0.001,0.0,0.0,0.0
15/08/2022,01:40:41,0.001,0.0,0.0,0.0
15/08/2022,01:41:41,0.000,0.0,0.0,0.0
15/08/2022,01:42:40,0.002,0.0,0.0,0.0
15/08/2022,01:43:41,0.001,0.0,0.0,0.0
15/08/2022,01:44:41,0.001,0.0,0.0,0.0
15/08/2022,01:45:41,0.001,0.0,0.0,0.0
15/08/2022,01:46:41,0.002,0.0,0.0,0.0
15/08/2022,01:47:41,0.001,0.0,0.0,0.0
15/08/2022,01:48:41,0.000,0.0,0.0,0.0
15/08/2022,01:49:41,0.001,0.0,0.0,0.0
15/08/2022,01:50:41,0.001,0.0,0.0,0.0
15/08/2022,01:51:41,0.001,0.0,0.0,0.0
15/08/2022,01:52:41,0.001,0.0,0.0,0.0
15/08/2022,01:53:41,0.001,0.0,0.0,0.0
15/08/2022,01:54:41,0.001,0.0,0.0,0.0
15/08/2022,01:55:40,0.001,0.0,0.0,0.0
15/08/2022,01:56:41,0.002,0.0,0.0,0.0
15/08/2022,01:57:41,0.001,0.0,0.0,0.0
15/08/2022,01:58:41,0.001,0.0,0.0,0.0
15/08/2022,01:59:41,0.001,0.0,0.0,0.0
15/08/2022,02:00:41,0.001,0.0,0.0,0.0
15/08/2022,02:01:49,0.000,0.0,0.0,0.0
15/08/2022,02:02:41,0.002,0.0,0.0,0.0
15/08/2022,02:03:40,0.002,0.0,0.0,0.0
15/08/2022,02:04:41,0.002,0.0,0.0,0.0
15/08/2022,02:05:41,0.002,0.0,0.0,0.0
15/08/2022,02:06:49,0.002,0.0,0.0,0.0
15/08/2022,02:07:41,0.001,0.0,0.0,0.0
15/08/2022,02:08:41,0.000,0.0,0.0,0.0
15/08/2022,02:09:41,0.002,0.0,0.0,0.0
15/08/2022,02:10:41,0.001,0.0,0.0,0.0
15/08/2022,02:11:41,0.001,0.0,0.0,0.0
15/08/2022,02:12:41,0.001,0.0,0.0,0.0
15/08/2022,02:13:41,0.002,0.0,0.0,0.0
15/08/2022,02:14:41,0.001,0.0,0.0,0.0
15/08/2022,02:15:41,0.002,0.0,0.0,0.0
15/08/2022,02:16:41,0.001,0.0,0.0,0.0
15/08/2022,02:17:41,0.002,0.0,0.0,0.0
15/08/2022,02:18:41,0.001,0.0,0.0,0.0
15/08/2022,02:19:41,0.001,0.0,0.0,0.0
15/08/2022,02:20:40,0.002,0.0,0.0,0.0
15/08/2022,02:21:41,0.001,0.0,0.0,0.0
15/08/2022,02:22:41,0.001,0.0,0.0,0.0
15/08/2022,02:23:41,0.001,0.0,0.0,0.0
15/08/2022,02:24:41,0.001,0.0,0.0,0.0
15/08/2022,02:25:41,0.001,0.0,0.0,0.0
15/08/2022,02:26:41,0.001,0.0,0.0,0.0
15/08/2022,02:27:41,0.001,0.0,0.0,0.0
15/08/2022,02:28:41,0.001,0.0,0.0,0.0
15/08/2022,02:29:41,0.001,0.0,0.0,0.0
15/08/2022,02:30:42,0.001,0.0,0.0,0.0
15/08/2022,02:31:41,0.001,0.0,0.0,0.0
15/08/2022,02:32:49,0.001,0.0,0.0,0.0
15/08/2022,02:33:41,0.003,0.0,0.0,0.0
15/08/2022,02:34:41,0.002,0.0,0.0,0.0
15/08/2022,02:35:50,0.002,0.0,0.0,0.0
15/08/2022,02:36:41,0.001,0.0,0.0,0.0
15/08/2022,02:37:41,0.000,0.0,0.0,0.0
15/08/2022,02:38:41,0.001,0.0,0.0,0.0
15/08/2022,02:39:41,0.002,0.0,0.0,0.0
15/08/2022,02:40:41,0.001,0.0,0.0,0.0
15/08/2022,02:41:41,0.002,0.0,0.0,0.0
15/08/2022,02:42:41,0.002,0.0,0.0,0.0
15/08/2022,02:43:41,0.002,0.0,0.0,0.0
15/08/2022,02:44:41,0.002,0.0,0.0,0.0
15/08/2022,02:45:41,0.002,0.0,0.0,0.0
15/08/2022,02:46:49,0.002,0.0,0.0,0.0
15/08/2022,02:47:41,0.002,0.0,0.0,0.0
15/08/2022,02:48:41,0.002,0.0,0.0,0.0
15/08/2022,02:49:41,0.002,0.0,0.0,0.0
15/08/2022,02:50:41,0.002,0.0,0.0,0.0
15/08/2022,02:51:41,0.002,0.0,0.0,0.0
15/08/2022,02:52:41,0.002,0.0,0.0,0.0
15/08/2022,02:53:41,0.002,0.0,0.0,0.0
15/08/2022,02:54:41,0.002,0.0,0.0,0.0
15/08/2022,02:55:41,0.002,0.0,0.0,0.0
15/08/2022,02:56:41,0.002,0.0,0.0,0.0
15/08/2022,02:57:41,0.003,0.0,0.0,0.0
15/08/2022,02:58:42,0.002,0.0,0.0,0.0
15/08/2022,02:59:41,0.002,0.0,0.0,0.0
15/08/2022,03:00:41,0.002,0.0,0.0,0.0
15/08/2022,03:01:41,0.002,0.0,0.0,0.0
15/08/2022,03:02:41,0.001,0.0,0.0,0.0
15/08/2022,03:03:41,0.001,0.0,0.0,0.0
15/08/2022,03:04:41,0.001,0.0,0.0,0.0
15/08/2022,03:05:41,0.002,0.0,0.0,0.0
15/08/2022,03:06:49,0.002,0.0,0.0,0.0
15/08/2022,03:07:41,0.002,0.0,0.0,0.0
15/08/2022,03:08:41,0.002,0.0,0.0,0.0
15/08/2022,03:09:50,0.001,0.0,0.0,0.0
15/08/2022,03:10:41,0.002,0.0,0.0,0.0
15/08/2022,03:11:41,0.003,0.0,0.0,0.0
15/08/2022,03:12:42,0.001,0.0,0.0,0.0
15/08/2022,03:13:41,0.002,0.0,0.0,0.0
15/08/2022,03:14:41,0.002,0.0,0.0,0.0
15/08/2022,03:15:41,0.002,0.0,0.0,0.0
15/08/2022,03:16:41,0.002,0.0,0.0,0.0
15/08/2022,03:17:49,0.002,0.0,0.0,0.0
15/08/2022,03:18:41,0.002,0.0,0.0,0.0
15/08/2022,03:19:41,0.002,0.0,0.0,0.0
15/08/2022,03:20:50,0.002,0.0,0.0,0.0
15/08/2022,03:21:41,0.003,0.0,0.0,0.0
15/08/2022,03:22:41,0.001,0.0,0.0,0.0
15/08/2022,03:23:41,0.001,0.0,0.0,0.0
15/08/2022,03:24:41,0.001,0.0,0.0,0.0
15/08/2022,03:25:41,0.003,0.0,0.0,0.0
15/08/2022,03:26:42,0.002,0.0,0.0,0.0
15/08/2022,03:27:41,0.002,0.0,0.0,0.0
15/08/2022,03:28:41,0.003,0.0,0.0,0.0
15/08/2022,03:29:41,0.002,0.0,0.0,0.0
15/08/2022,03:30:41,0.002,0.0,0.0,0.0
15/08/2022,03:31:41,0.002,0.0,0.0,0.0
15/08/2022,03:32:41,0.001,0.0,0.0,0.0
15/08/2022,03:33:42,0.002,0.0,0.0,0.0
15/08/2022,03:34:41,0.002,0.0,0.0,0.0
15/08/2022,03:35:41,0.002,0.0,0.0,0.0
15/08/2022,03:36:41,0.002,0.0,0.0,0.0
15/08/2022,03:37:42,0.001,0.0,0.0,0.0
15/08/2022,03:38:41,0.002,0.0,0.0,0.0
15/08/2022,03:39:42,0.003,0.0,0.0,0.0
15/08/2022,03:40:41,0.002,0.0,0.0,0.0
15/08/2022,03:41:41,0.003,0.0,0.0,0.0
15/08/2022,03:42:41,0.003,0.0,0.0,0.0
15/08/2022,03:43:41,0.003,0.0,0.0,0.0
15/08/2022,03:44:41,0.002,0.0,0.0,0.0
15/08/2022,03:45:42,0.002,0.0,0.0,0.0
15/08/2022,03:46:49,0.002,0.0,0.0,0.0
15/08/2022,03:47:41,0.002,0.0,0.0,0.0
15/08/2022,03:48:41,0.002,0.0,0.0,0.0
15/08/2022,03:49:41,0.002,0.0,0.0,0.0
15/08/2022,03:50:41,0.001,0.0,0.0,0.0
15/08/2022,03:51:50,0.002,0.0,0.0,0.0
15/08/2022,03:52:41,0.002,0.0,0.0,0.0
15/08/2022,03:53:42,0.002,0.0,0.0,0.0
15/08/2022,03:54:41,0.001,0.0,0.0,0.0
15/08/2022,03:55:42,0.002,0.0,0.0,0.0
15/08/2022,03:56:41,0.002,0.0,0.0,0.0
15/08/2022,03:57:41,0.002,0.0,0.0,0.0
15/08/2022,03:58:41,0.002,0.0,0.0,0.0
15/08/2022,03:59:41,0.003,0.0,0.0,0.0
15/08/2022,04:00:41,0.003,0.0,0.0,0.0
15/08/2022,04:01:41,0.003,0.0,0.0,0.0
15/08/2022,04:02:32,0.001,0.0,0.0,0.0
15/08/2022,04:03:42,0.002,0.0,0.0,0.0
15/08/2022,04:04:41,0.002,0.0,0.0,0.0
15/08/2022,04:05:41,0.001,0.0,0.0,0.0
15/08/2022,04:06:49,0.002,0.0,0.0,0.0
15/08/2022,04:07:41,0.001,0.0,0.0,0.0
15/08/2022,04:08:41,0.002,0.0,0.0,0.0
15/08/2022,04:09:50,0.002,0.0,0.0,0.0
15/08/2022,04:10:41,0.002,0.0,0.0,0.0
15/08/2022,04:11:41,0.001,0.0,0.0,0.0
15/08/2022,04:12:41,0.002,0.0,0.0,0.0
15/08/2022,04:13:41,0.002,0.0,0.0,0.0
15/08/2022,04:14:41,0.003,0.0,0.0,0.0
15/08/2022,04:15:50,0.002,0.0,0.0,0.0
15/08/2022,04:16:42,0.001,0.0,0.0,0.0
15/08/2022,04:17:50,0.003,0.0,0.0,0.0
15/08/2022,04:18:41,0.002,0.0,0.0,0.0
15/08/2022,04:19:41,0.002,0.0,0.0,0.0
15/08/2022,04:20:41,0.002,0.0,0.0,0.0
15/08/2022,04:21:41,0.001,0.0,0.0,0.0
15/08/2022,04:22:42,0.002,0.0,0.0,0.0
15/08/2022,04:23:41,0.002,0.0,0.0,0.0
15/08/2022,04:24:41,0.002,0.0,0.0,0.0
15/08/2022,04:25:41,0.001,0.0,0.0,0.0
15/08/2022,04:26:41,0.002,0.0,0.0,0.0
15/08/2022,04:27:35,0.002,0.0,0.0,0.0
15/08/2022,04:28:42,0.002,0.0,0.0,0.0
15/08/2022,04:29:50,0.001,0.0,0.0,0.0
15/08/2022,04:30:41,0.002,0.0,0.0,0.0
15/08/2022,04:31:41,0.003,0.0,0.0,0.0
15/08/2022,04:32:42,0.002,0.0,0.0,0.0
15/08/2022,04:33:41,0.002,0.0,0.0,0.0
15/08/2022,04:34:41,0.002,0.0,0.0,0.0
15/08/2022,04:35:41,0.002,0.0,0.0,0.0
15/08/2022,04:36:42,0.003,0.0,0.0,0.0
15/08/2022,04:37:41,0.002,0.0,0.0,0.0
15/08/2022,04:38:42,0.003,0.0,0.0,0.0
15/08/2022,04:39:41,0.003,0.0,0.0,0.0
15/08/2022,04:40:41,0.002,0.0,0.0,0.0
15/08/2022,04:41:41,0.002,0.0,0.0,0.0
15/08/2022,04:42:41,0.002,0.0,0.0,0.0
15/08/2022,04:43:42,0.003,0.0,0.0,0.0
15/08/2022,04:44:41,0.002,0.0,0.0,0.0
15/08/2022,04:45:41,0.003,0.0,0.0,0.0
15/08/2022,04:46:41,0.002,0.0,0.0,0.0
15/08/2022,04:47:41,0.003,0.0,0.0,0.0
15/08/2022,04:48:42,0.003,0.0,0.0,0.0
15/08/2022,04:49:41,0.003,0.0,0.0,0.0
15/08/2022,04:50:41,0.003,0.0,0.0,0.0
15/08/2022,04:51:41,0.003,0.0,0.0,0.0
15/08/2022,04:52:41,0.003,0.0,0.0,0.0
15/08/2022,04:53:41,0.003,0.0,0.0,0.0
15/08/2022,04:54:41,0.003,0.0,0.0,0.0
15/08/2022,04:55:50,0.003,0.0,0.0,0.0
15/08/2022,04:56:41,0.003,0.0,0.0,0.0
15/08/2022,04:57:41,0.004,0.0,0.0,0.0
15/08/2022,04:58:49,0.003,0.0,0.0,0.0
15/08/2022,04:59:41,0.005,0.0,0.0,0.0
15/08/2022,05:00:41,0.004,0.0,0.0,0.0
15/08/2022,05:01:42,0.005,0.0,0.0,0.0
15/08/2022,05:02:41,0.004,0.0,0.0,0.0
15/08/2022,05:03:41,0.004,0.0,0.0,0.0
15/08/2022,05:04:41,0.005,0.0,0.0,0.0
15/08/2022,05:05:41,0.005,0.0,0.0,0.0
15/08/2022,05:06:42,0.004,0.0,0.0,0.0
15/08/2022,05:07:41,0.005,0.0,0.0,0.0
15/08/2022,05:08:40,0.005,0.0,0.0,0.0
15/08/2022,05:09:41,0.005,0.0,0.0,0.0
15/08/2022,05:10:42,0.006,0.0,0.0,0.0
15/08/2022,05:11:41,0.006,0.0,0.0,0.0
15/08/2022,05:12:42,0.007,0.0,0.0,0.0
15/08/2022,05:13:42,0.007,0.0,0.0,0.0
15/08/2022,05:14:41,0.007,0.0,0.0,0.0
15/08/2022,05:15:42,0.006,0.0,0.0,0.0
15/08/2022,05:16:41,0.007,0.0,0.001,0.001
15/08/2022,05:17:41,0.008,0.0,0.001,0.0
15/08/2022,05:18:41,0.008,0.0,0.001,0.0
15/08/2022,05:19:41,0.008,0.0,0.001,0.0
15/08/2022,05:20:41,0.008,0.0,0.001,0.0
15/08/2022,05:21:41,0.010,0.0,0.001,0.0
15/08/2022,05:22:41,0.009,0.0,0.001,0.0
15/08/2022,05:23:41,0.009,0.0,0.002,0.001
15/08/2022,05:24:41,0.010,0.0,0.002,0.0
15/08/2022,05:25:50,0.009,0.0,0.002,0.0
15/08/2022,05:26:41,0.010,0.0,0.002,0.0
15/08/2022,05:27:41,0.011,0.0,0.002,0.0
15/08/2022,05:28:42,0.011,0.0,0.002,0.0
15/08/2022,05:29:41,0.011,0.0,0.003,0.001
15/08/2022,05:30:50,0.013,0.0,0.003,0.0
15/08/2022,05:31:41,0.013,0.0,0.003,0.0
15/08/2022,05:32:41,0.012,0.0,0.003,0.0
15/08/2022,05:33:42,0.014,0.0,0.003,0.0
15/08/2022,05:34:41,0.014,0.0,0.004,0.001
15/08/2022,05:35:42,0.014,0.0,0.004,0.0
15/08/2022,05:36:50,0.015,0.0,0.004,0.0
15/08/2022,05:37:41,0.015,0.0,0.004,0.0
15/08/2022,05:38:42,0.016,0.0,0.005,0.001
15/08/2022,05:39:49,0.016,0.0,0.005,0.0
15/08/2022,05:40:41,0.016,0.0,0.005,0.0
15/08/2022,05:41:42,0.017,0.0,0.005,0.0
15/08/2022,05:42:41,0.018,0.0,0.006,0.001
15/08/2022,05:43:41,0.018,0.0,0.006,0.0
15/08/2022,05:44:42,0.019,0.0,0.006,0.0
15/08/2022,05:45:42,0.019,0.0,0.007,0.001
15/08/2022,05:46:41,0.020,0.0,0.007,0.0
15/08/2022,05:47:41,0.021,0.0,0.007,0.0
15/08/2022,05:48:41,0.021,0.0,0.008,0.001
15/08/2022,05:49:41,0.022,0.0,0.008,0.0
15/08/2022,05:50:41,0.023,0.0,0.008,0.0
15/08/2022,05:51:41,0.023,0.0,0.009,0.001
15/08/2022,05:52:41,0.024,0.0,0.009,0.0
15/08/2022,05:53:41,0.024,0.0,0.01,0.001
15/08/2022,05:54:50,0.025,0.0,0.01,0.0
15/08/2022,05:55:43,0.026,0.0,0.01,0.0
15/08/2022,05:56:42,0.027,0.0,0.011,0.001
15/08/2022,05:57:41,0.027,0.0,0.011,0.0
15/08/2022,05:58:41,0.028,0.0,0.012,0.001
15/08/2022,05:59:42,0.029,0.0,0.012,0.0
15/08/2022,06:00:41,0.030,0.0,0.013,0.001
15/08/2022,06:01:42,0.030,0.0,0.013,0.0
15/08/2022,06:02:41,0.031,0.0,0.014,0.001
15/08/2022,06:03:42,0.032,0.0,0.014,0.0
15/08/2022,06:04:42,0.032,0.0,0.015,0.001
15/08/2022,06:05:42,0.034,0.0,0.015,0.0
15/08/2022,06:06:41,0.035,0.0,0.016,0.001
15/08/2022,06:07:41,0.035,0.0,0.017,0.001
15/08/2022,06:08:42,0.036,0.0,0.017,0.0
15/08/2022,06:09:41,0.037,0.0,0.018,0.001
15/08/2022,06:10:42,0.038,0.0,0.018,0.0
15/08/2022,06:11:42,0.039,0.0,0.019,0.001
15/08/2022,06:12:41,0.040,0.0,0.02,0.001
15/08/2022,06:13:41,0.041,0.0,0.02,0.0
15/08/2022,06:14:41,0.041,0.0,0.021,0.001
15/08/2022,06:15:42,0.043,0.0,0.022,0.001
15/08/2022,06:16:41,0.045,0.0,0.022,0.0
15/08/2022,06:17:42,0.045,0.0,0.023,0.001
15/08/2022,06:18:50,0.047,0.0,0.024,0.001
15/08/2022,06:19:41,0.048,0.0,0.025,0.001
15/08/2022,06:20:50,0.050,0.0,0.026,0.001
15/08/2022,06:21:41,0.050,0.0,0.026,0.0
15/08/2022,06:22:41,0.053,0.0,0.027,0.001
15/08/2022,06:23:42,0.054,0.0,0.028,0.001
15/08/2022,06:24:41,0.055,0.0,0.029,0.001
15/08/2022,06:25:42,0.056,0.0,0.03,0.001
15/08/2022,06:26:41,0.059,0.0,0.031,0.001
15/08/2022,06:27:41,0.060,0.0,0.032,0.001
15/08/2022,06:28:41,0.062,0.0,0.033,0.001
15/08/2022,06:29:41,0.064,0.0,0.034,0.001
15/08/2022,06:30:42,0.065,0.0,0.035,0.001
15/08/2022,06:31:41,0.066,0.0,0.036,0.001
15/08/2022,06:32:42,0.069,0.0,0.037,0.001
15/08/2022,06:33:41,0.070,0.0,0.039,0.002
15/08/2022,06:34:42,0.072,0.0,0.04,0.001
15/08/2022,06:35:42,0.075,0.0,0.041,0.001
15/08/2022,06:36:41,0.076,0.0,0.042,0.001
15/08/2022,06:37:41,0.079,0.0,0.043,0.001
15/08/2022,06:38:41,0.079,0.0,0.045,0.002
15/08/2022,06:39:42,0.082,0.0,0.046,0.001
15/08/2022,06:40:41,0.085,0.0,0.048,0.002
15/08/2022,06:41:41,0.087,0.0,0.049,0.001
15/08/2022,06:42:41,0.089,0.0,0.05,0.001
15/08/2022,06:43:41,0.091,0.0,0.052,0.002
15/08/2022,06:44:50,0.093,0.0,0.054,0.002
15/08/2022,06:45:41,0.095,0.0,0.055,0.001
15/08/2022,06:46:41,0.098,0.0,0.057,0.002
15/08/2022,06:47:42,0.100,0.0,0.058,0.001
15/08/2022,06:48:41,0.102,0.0,0.06,0.002
15/08/2022,06:49:42,0.105,0.0,0.062,0.002
15/08/2022,06:50:41,0.107,0.0,0.063,0.001
15/08/2022,06:51:54,0.110,0.0,0.066,0.003
15/08/2022,06:53:42,0.115,0.0,0.069,0.003
15/08/2022,06:54:41,0.117,0.0,0.071,0.002
15/08/2022,06:55:41,0.118,0.0,0.073,0.002
15/08/2022,06:56:42,0.122,0.0,0.075,0.002
15/08/2022,06:57:41,0.125,0.0,0.077,0.002
15/08/2022,06:58:42,0.127,0.0,0.079,0.002
15/08/2022,06:59:50,0.129,0.0,0.081,0.002
15/08/2022,07:00:42,0.131,0.0,0.083,0.002
15/08/2022,07:01:42,0.134,0.0,0.086,0.003
15/08/2022,07:02:50,0.137,0.0,0.088,0.002
15/08/2022,07:03:41,0.140,0.0,0.09,0.002
15/08/2022,07:04:41,0.142,0.0,0.092,0.002
15/08/2022,07:05:41,0.145,0.0,0.095,0.003
15/08/2022,07:06:42,0.147,0.0,0.097,0.002
15/08/2022,07:07:41,0.150,0.0,0.1,0.003
15/08/2022,07:08:50,0.152,0.0,0.103,0.003
15/08/2022,07:09:41,0.156,0.0,0.105,0.002
15/08/2022,07:10:41,0.159,0.0,0.107,0.002
15/08/2022,07:11:41,0.162,0.0,0.11,0.003
15/08/2022,07:12:42,0.164,0.0,0.113,0.003
15/08/2022,07:13:41,0.168,0.0,0.116,0.003
15/08/2022,07:14:41,0.169,0.0,0.118,0.002
15/08/2022,07:15:42,0.173,0.0,0.121,0.003
15/08/2022,07:16:41,0.176,0.0,0.124,0.003
15/08/2022,07:17:42,0.179,0.0,0.127,0.003
15/08/2022,07:18:41,0.182,0.0,0.13,0.003
15/08/2022,07:19:41,0.185,0.0,0.133,0.003
15/08/2022,07:20:41,0.188,0.0,0.136,0.003
15/08/2022,07:21:41,0.192,0.0,0.139,0.003
15/08/2022,07:22:42,0.195,0.0,0.143,0.004
15/08/2022,07:23:42,0.199,0.0,0.146,0.003
15/08/2022,07:24:41,0.202,0.0,0.149,0.003
15/08/2022,07:25:41,0.206,0.0,0.153,0.004
15/08/2022,07:26:50,0.210,0.0,0.157,0.004
15/08/2022,07:27:41,0.213,0.0,0.16,0.003
15/08/2022,07:28:50,0.217,0.0,0.164,0.004
15/08/2022,07:29:41,0.221,1.0,0.167,0.003
15/08/2022,07:30:41,0.225,1.0,0.171,0.004
15/08/2022,07:31:42,0.229,1.0,0.174,0.003
15/08/2022,07:32:41,0.233,1.0,0.178,0.004
15/08/2022,07:33:42,0.237,1.0,0.182,0.004
15/08/2022,07:34:49,0.241,1.0,0.187,0.005
15/08/2022,07:35:42,0.246,1.0,0.19,0.003
15/08/2022,07:36:58,0.251,1.0,0.196,0.006
15/08/2022,07:38:42,0.259,1.0,0.203,0.007
15/08/2022,07:39:42,0.264,1.0,0.207,0.004
15/08/2022,07:40:42,0.269,1.0,0.212,0.005
15/08/2022,07:41:41,0.273,1.0,0.216,0.004
15/08/2022,07:42:42,0.280,1.0,0.221,0.005
15/08/2022,07:43:41,0.282,1.0,0.225,0.004
15/08/2022,07:44:42,0.288,1.0,0.23,0.005
15/08/2022,07:45:41,0.292,1.0,0.235,0.005
15/08/2022,07:46:42,0.296,1.0,0.24,0.005
15/08/2022,07:47:41,0.300,1.0,0.245,0.005
15/08/2022,07:48:42,0.304,1.0,0.25,0.005
15/08/2022,07:49:41,0.309,1.0,0.255,0.005
15/08/2022,07:50:41,0.312,1.0,0.26,0.005
15/08/2022,07:51:42,0.316,1.0,0.265,0.005
15/08/2022,07:52:50,0.321,1.0,0.272,0.007
15/08/2022,07:53:41,0.326,1.0,0.276,0.004
15/08/2022,07:54:42,0.330,1.0,0.282,0.006
15/08/2022,07:55:50,0.334,1.0,0.288,0.006
15/08/2022,07:56:41,0.336,1.0,0.293,0.005
15/08/2022,07:57:41,0.339,1.0,0.298,0.005
15/08/2022,07:58:42,0.343,1.0,0.304,0.006
15/08/2022,07:59:41,0.345,1.0,0.31,0.006
15/08/2022,08:00:42,0.346,1.0,0.316,0.006
15/08/2022,08:01:41,0.346,1.0,0.321,0.005
15/08/2022,08:02:42,0.347,1.0,0.327,0.006
15/08/2022,08:03:50,0.349,1.0,0.334,0.007
15/08/2022,08:04:41,0.343,1.0,0.339,0.005
15/08/2022,08:05:42,0.347,1.0,0.344,0.005
15/08/2022,08:06:42,0.348,1.0,0.35,0.006
15/08/2022,08:07:42,0.354,1.0,0.356,0.006
15/08/2022,08:08:42,0.359,1.0,0.362,0.006
15/08/2022,08:09:42,0.364,1.0,0.368,0.006
15/08/2022,08:10:42,0.370,1.0,0.374,0.006
15/08/2022,08:11:41,0.376,1.0,0.38,0.006
15/08/2022,08:12:42,0.378,1.0,0.387,0.007
15/08/2022,08:13:41,0.384,1.0,0.393,0.006
15/08/2022,08:14:42,0.386,1.0,0.399,0.006
15/08/2022,08:15:41,0.386,1.0,0.406,0.007
15/08/2022,08:16:42,0.386,1.0,0.412,0.006
15/08/2022,08:17:41,0.400,1.0,0.419,0.007
15/08/2022,08:18:41,0.393,1.0,0.426,0.007
15/08/2022,08:19:54,0.396,1.0,0.433,0.007
15/08/2022,08:21:43,0.418,1.0,0.446,0.013
15/08/2022,08:22:34,0.432,1.0,0.452,0.006
15/08/2022,08:23:42,0.439,1.0,0.46,0.008
15/08/2022,08:24:50,0.449,1.0,0.468,0.008
15/08/2022,08:25:41,0.451,1.0,0.475,0.007
15/08/2022,08:26:42,0.467,1.0,0.482,0.007
15/08/2022,08:27:41,0.474,1.0,0.49,0.008
15/08/2022,08:28:41,0.484,1.0,0.498,0.008
15/08/2022,08:29:42,0.491,1.0,0.506,0.008
15/08/2022,08:30:43,0.495,1.0,0.515,0.009
15/08/2022,08:31:42,0.497,1.0,0.523,0.008
15/08/2022,08:32:49,0.497,1.0,0.532,0.009
15/08/2022,08:33:42,0.508,1.0,0.539,0.007
15/08/2022,08:34:41,0.520,1.0,0.548,0.009
15/08/2022,08:35:42,0.528,1.0,0.557,0.009
15/08/2022,08:36:41,0.534,1.0,0.566,0.009
15/08/2022,08:37:42,0.541,1.0,0.575,0.009
15/08/2022,08:38:42,0.545,1.0,0.584,0.009
15/08/2022,08:39:41,0.548,1.0,0.593,0.009
15/08/2022,08:40:42,0.544,1.0,0.602,0.009
15/08/2022,08:41:42,0.541,1.0,0.611,0.009
15/08/2022,08:42:42,0.556,1.0,0.62,0.009
15/08/2022,08:43:41,0.560,1.0,0.629,0.009
15/08/2022,08:44:41,0.563,1.0,0.639,0.01
15/08/2022,08:45:41,0.567,1.0,0.648,0.009
15/08/2022,08:46:42,0.572,1.0,0.658,0.01
15/08/2022,08:47:42,0.577,1.0,0.667,0.009
15/08/2022,08:48:42,0.583,1.0,0.677,0.01
15/08/2022,08:49:42,0.587,1.0,0.687,0.01
15/08/2022,08:50:49,0.593,1.0,0.698,0.011
15/08/2022,08:54:43,0.606,1.0,0.736,0.038
15/08/2022,08:55:50,0.612,1.0,0.748,0.012
15/08/2022,08:56:42,0.619,1.0,0.756,0.008
15/08/2022,08:57:42,0.620,1.0,0.767,0.011
15/08/2022,08:58:41,0.625,1.0,0.777,0.01
15/08/2022,08:59:41,0.645,1.0,0.788,0.011
15/08/2022,09:00:41,0.653,2.0,0.799,0.011
15/08/2022,09:01:41,0.661,2.0,0.809,0.01
15/08/2022,09:02:42,0.664,2.0,0.821,0.012
15/08/2022,09:03:42,0.662,2.0,0.832,0.011
15/08/2022,09:04:41,0.651,1.0,0.843,0.011
15/08/2022,09:05:42,0.658,2.0,0.853,0.01
15/08/2022,09:06:42,0.660,2.0,0.865,0.012
15/08/2022,09:07:42,0.653,2.0,0.875,0.01
15/08/2022,09:08:42,0.662,2.0,0.886,0.011
15/08/2022,09:09:42,0.638,1.0,0.897,0.011
15/08/2022,09:10:42,0.631,1.0,0.908,0.011
15/08/2022,09:11:41,0.633,1.0,0.918,0.01
15/08/2022,09:12:42,0.638,1.0,0.929,0.011
15/08/2022,09:13:42,0.647,1.0,0.94,0.011
15/08/2022,09:14:41,0.673,2.0,0.951,0.011
15/08/2022,09:15:42,0.646,1.0,0.962,0.011
15/08/2022,09:16:50,0.665,2.0,0.974,0.012
15/08/2022,09:17:42,0.671,2.0,0.984,0.01
15/08/2022,09:18:42,0.734,2.0,0.995,0.011
15/08/2022,09:19:42,0.742,2.0,1.007,0.012
15/08/2022,09:20:41,0.746,2.0,1.02,0.013
15/08/2022,09:21:42,0.764,2.0,1.032,0.012
15/08/2022,09:22:41,0.724,2.0,1.045,0.013
15/08/2022,09:23:42,0.718,2.0,1.057,0.012
15/08/2022,09:24:50,0.717,2.0,1.07,0.013
15/08/2022,09:25:41,0.724,2.0,1.081,0.011
15/08/2022,09:26:41,0.738,2.0,1.093,0.012
15/08/2022,09:27:50,0.734,2.0,1.107,0.014
15/08/2022,09:28:42,0.727,2.0,1.117,0.01
15/08/2022,09:29:42,0.713,2.0,1.129,0.012
15/08/2022,09:30:41,0.717,2.0,1.142,0.013
15/08/2022,09:31:42,0.716,2.0,1.153,0.011
15/08/2022,09:32:41,0.701,2.0,1.165,0.012
15/08/2022,09:33:42,0.703,2.0,1.177,0.012
15/08/2022,09:34:42,0.678,2.0,1.188,0.011
15/08/2022,09:35:51,0.662,2.0,1.201,0.013
15/08/2022,09:36:43,0.654,2.0,1.211,0.01
15/08/2022,09:37:42,0.647,1.0,1.221,0.01
15/08/2022,09:38:50,0.651,1.0,1.234,0.013
15/08/2022,09:39:41,0.657,2.0,1.243,0.009
15/08/2022,09:40:42,0.669,2.0,1.254,0.011
15/08/2022,09:41:42,0.679,2.0,1.265,0.011
15/08/2022,09:42:42,0.698,2.0,1.277,0.012
15/08/2022,09:43:41,0.694,2.0,1.289,0.012
15/08/2022,09:44:42,0.697,2.0,1.3,0.011
15/08/2022,09:45:41,0.698,2.0,1.312,0.012
15/08/2022,09:46:41,0.700,2.0,1.323,0.011
15/08/2022,09:47:42,0.699,2.0,1.335,0.012
15/08/2022,09:48:42,0.701,2.0,1.347,0.012
15/08/2022,09:49:41,0.698,2.0,1.358,0.011
15/08/2022,09:50:42,0.702,2.0,1.37,0.012
15/08/2022,09:51:42,0.724,2.0,1.382,0.012
15/08/2022,09:52:42,0.728,2.0,1.394,0.012
15/08/2022,09:53:42,0.712,2.0,1.406,0.012
15/08/2022,09:54:42,0.718,2.0,1.418,0.012
15/08/2022,09:55:41,0.728,2.0,1.43,0.012
15/08/2022,09:56:42,0.774,2.0,1.443,0.013
15/08/2022,09:57:42,0.734,2.0,1.455,0.012
15/08/2022,09:58:42,0.725,2.0,1.468,0.013
15/08/2022,09:59:42,0.730,2.0,1.48,0.012
15/08/2022,10:00:42,0.742,2.0,1.492,0.012
15/08/2022,10:01:42,0.732,2.0,1.504,0.012
15/08/2022,10:02:42,0.713,2.0,1.516,0.012
15/08/2022,10:03:42,0.716,2.0,1.528,0.012
15/08/2022,10:04:42,0.696,2.0,1.54,0.012
15/08/2022,10:05:42,0.687,2.0,1.551,0.011
15/08/2022,10:06:42,0.709,2.0,1.563,0.012
15/08/2022,10:07:42,0.713,2.0,1.575,0.012
15/08/2022,10:08:41,0.678,2.0,1.586,0.011
15/08/2022,10:09:42,0.654,2.0,1.597,0.011
15/08/2022,10:10:42,0.674,2.0,1.608,0.011
15/08/2022,10:11:41,0.649,1.0,1.619,0.011
15/08/2022,10:14:24,0.678,2.0,1.649,0.03
15/08/2022,10:15:42,0.586,1.0,1.663,0.014
15/08/2022,10:16:42,0.518,1.0,1.672,0.009
15/08/2022,10:17:42,0.543,1.0,1.681,0.009
15/08/2022,10:18:49,0.483,1.0,1.691,0.01
15/08/2022,10:19:42,0.482,1.0,1.698,0.007
15/08/2022,10:20:41,0.490,1.0,1.706,0.008